[Iaude] MPEC F108: 2022 FD3 [a=1.50,e=0.20,i=15.6,H=24.2]

mpec at marsden.cfa.harvard.edu mpec at marsden.cfa.harvard.edu
Mon Mar 28 06:54:05 EDT 2022


M.P.E.C. 2022-F108                               Issued 2022 March 28, 10:52 UT

     The Minor Planet Electronic Circulars contain information on unusual
         minor planets and routine data on comets.  They are published
    on behalf of Division F of the International Astronomical Union by the
          Minor Planet Center, Smithsonian Astrophysical Observatory,
                          Cambridge, MA 02138, U.S.A.

             Prepared using the Tamkin Foundation Computer Network

                              MPC at CFA.HARVARD.EDU
            URL https://www.minorplanetcenter.net/    ISSN 1523-6714

                                    2022 FD3                                    


Observations:
     K22F03D* C2022 03 25.37289411 56 24.46 +20 47 30.6          22.92GVEF108V00
     K22F03D  C2022 03 25.37774911 56 24.56 +20 47 43.6          22.36GVEF108V00
     K22F03D  C2022 03 25.38260511 56 24.70 +20 47 57.0          22.76GVEF108V00
     K22F03D KC2022 03 25.44856 11 56 26.65 +20 50 54.2          22.7 GVEF108291
     K22F03D KC2022 03 25.46735 11 56 27.26 +20 51 43.9          22.4 GVEF108291
     K22F03D KC2022 03 25.48639 11 56 27.81 +20 52 34.2          22.4 GVEF108291
     K22F03D KC2022 03 26.39157 11 57 04.05 +21 32 47.7          22.6 GVEF108291
     K22F03D KC2022 03 26.41033 11 57 04.57 +21 33 36.4          22.3 GVEF108291
     K22F03D KC2022 03 27.33527 11 57 41.62 +22 13 00.9          23.2 GVEF108291
     K22F03D KC2022 03 27.34500 11 57 41.90 +22 13 24.7          22.3 GVEF108291
     K22F03D KC2022 03 27.35475 11 57 42.15 +22 13 50.1          22.6 GVEF108291
     K22F03D KC2022 03 28.16203911 58 15.30 +22 46 45.7          22.5 VuEF108H21
     K22F03D KC2022 03 28.17073411 58 15.55 +22 47 06.6          22.6 VuEF108H21
     K22F03D KC2022 03 28.17495311 58 15.66 +22 47 17.2          22.5 VuEF108H21
     K22F03D mC2022 03 28.27194011 58 19.15 +22 51 13.5          22.94GVEF108V00
     K22F03D mC2022 03 28.27317611 58 19.21 +22 51 16.7          22.57GVEF108V00
     K22F03D mC2022 03 28.27441111 58 19.22 +22 51 19.8          22.93GVEF108V00

Observer details:
291 LPL/Spacewatch II.  Observer R. A. Mastaler.  1.8-m f/2.7 reflector + CCD.
H21 Astronomical Research Observatory, Westfield.  Observer R. Holmes.
    Measurers T. Linder, R. Holmes, L. Horn.  1.3-m f/4.0 astrograph + CCD.
V00 Kitt Peak-Bok.  Observers H. Groeller, K. W. Wierzchos, C. Lejoly.
    Measurers M. J. Brucker, E. J. Christensen, C. E. Woodward, G. A. Farneth,
    J. B. Fazekas, D. C. Fuls, A. R. Gibbs, A. D. Grauer, H. Groeller, R. A.
    Kowalski, S. M. Larson, G. J. Leonard, R. S. McMillan, D. Rankin, R. L.
    Seaman, A. Serrano, F. C. Shelly, K. W. Wierzchos.  2.25-m reflector +
    CCD.

Orbital elements:
2022 FD3                                                 Earth MOID = 0.2228 AU
Epoch 2022 Jan. 21.0 TT = JDT 2459600.5                 Veres                   
M 351.35206              (2000.0)            P               Q                  
n   0.53572783     Peri.  337.02679     -0.81644629     -0.57444939             
a   1.5014352      Node   167.39556     +0.56262747     -0.81422376             
e   0.1987988      Incl.   15.55258     +0.12986836     -0.08394981             
P   1.84           H   24.23          G   0.15           U   9                  
Residuals in seconds of arc
220325 V00  0.4+  0.1-    220326 291  0.0   0.5-    220328 H21  0.1-  0.1+
220325 V00  0.1-  0.2-    220326 291  0.4-  0.0     220328 H21  0.2-  0.5+
220325 V00  0.0   0.2+    220327 291  0.0   0.3-    220328 V00  0.1-  0.2-
220325 291  0.2-  0.5+    220327 291  0.2+  0.6-    220328 V00  0.3+  0.1-
220325 291  0.1-  0.1+    220327 291  0.1-  0.6+    220328 V00  0.1-  0.0
220325 291  1.3-  0.2-    220328 H21  0.0   0.3+

Ephemeris:
2022 FD3                 a,e,i = 1.50, 0.20, 16                  q = 1.2030
Date    TT    R. A. (2000) Decl.     Delta      r    Elong.  Phase     V
2022 02 26    11 34 42.5 -07 31 35   0.2350  1.2109   157.8    18.0    22.4
...
2022 03 13    11 47 57.9 +09 11 47   0.2348  1.2270   172.6     6.0    22.0
...
2022 03 21    11 53 32.9 +17 10 57   0.2520  1.2388   162.7    13.8    22.5
...
2022 03 27    11 57 28.9 +21 59 00   0.2716  1.2490   154.9    19.8    22.9
2022 03 28    11 58 08.2 +22 40 22   0.2754  1.2508   153.7    20.7    22.9
2022 03 29    11 58 47.6 +23 19 49   0.2793  1.2526   152.5    21.6    23.0
...
2022 04 04    12 02 52.0 +26 37 16   0.3053  1.2642   145.8    26.4    23.4
...
2022 04 12    12 08 55.9 +29 25 10   0.3454  1.2811   138.4    31.3    23.8
...
2022 04 27    12 22 50.0 +30 57 38   0.4329  1.3165   127.7    37.2    24.5

M. P. C. Staff               (C) Copyright 2022 MPC           M.P.E.C. 2022-F108




More information about the Iaude mailing list